When you browse on this site, cookies collect data to enhance your experience and personalize the content and advertising you see.
Visit our Privacy Policy to learn more. By continuing to use the site, you agree to this use of cookies and data.
  • In Österreich
  • Länderverzeichnis
  • Für 7 Tage
  • Wassertemperatur
  • Wetterkarte
  • News
  • Widgets
  • user-avatar
    Anmelden

    Stündliche Wetter Cegielsko

    Heute, 20 August, Dienstag

    Zeit Temperatur Niederschläge Wind Luftdruck Luftfeuchtigkeit
    00:00 +18°C° 0 mm 1 m/S 757 mmHg 88%
    01:00 +18°C° 0 mm 1 m/S 757 mmHg 88%
    02:00 +18°C° 0 mm 1 m/S 758 mmHg 88%
    03:00 +16°C° 0 mm 1 m/S 758 mmHg 88%
    04:00 +16°C° 0 mm 1 m/S 758 mmHg 88%
    05:00 +18°C° 0 mm 1 m/S 758 mmHg 85%
    06:00 +19°C° 0 mm 1 m/S 758 mmHg 82%
    07:00 +20°C° 0 mm 1 m/S 759 mmHg 79%
    08:00 +21°C° 0 mm 1 m/S 759 mmHg 74%
    09:00 +22°C° 0 mm 1 m/S 759 mmHg 69%
    10:00 +23°C° 0 mm 1 m/S 759 mmHg 64%
    11:00 +24°C° 0 mm 1 m/S 759 mmHg 57%
    12:00 +26°C° 0 mm 1 m/S 759 mmHg 51%
    13:00 +27°C° 0 mm 1 m/S 759 mmHg 44%
    14:00 +27°C° 0 mm 1 m/S 758 mmHg 45%
    15:00 +27°C° 0 mm 1 m/S 758 mmHg 46%
    16:00 +26°C° 0 mm 1 m/S 758 mmHg 47%
    17:00 +25°C° 0 mm 2 m/S 758 mmHg 50%
    18:00 +24°C° 0 mm 2 m/S 759 mmHg 53%
    19:00 +23°C° 0 mm 2 m/S 759 mmHg 55%
    20:00 +21°C° 0.7 mm 2 m/S 759 mmHg 64%
    21:00 +20°C° 0.7 mm 2 m/S 759 mmHg 72%
    22:00 +19°C° 0.7 mm 1 m/S 759 mmHg 80%
    23:00 +19°C° 0.2 mm 1 m/S 759 mmHg 82%

    Morgen, 21 August, Mittwoch

    Zeit Temperatur Niederschläge Wind Luftdruck Luftfeuchtigkeit
    00:00 +18°C° 0.2 mm 2 m/S 759 mmHg 84%
    01:00 +18°C° 0.2 mm 2 m/S 760 mmHg 86%
    02:00 +17°C° 0.7 mm 2 m/S 760 mmHg 87%
    03:00 +17°C° 0.7 mm 2 m/S 760 mmHg 88%
    04:00 +17°C° 0.7 mm 3 m/S 760 mmHg 89%
    05:00 +16°C° 0.5 mm 3 m/S 760 mmHg 90%
    06:00 +16°C° 0.5 mm 3 m/S 761 mmHg 91%
    07:00 +16°C° 0.5 mm 3 m/S 761 mmHg 91%
    08:00 +16°C° 0.2 mm 3 m/S 762 mmHg 89%
    09:00 +17°C° 0.2 mm 3 m/S 762 mmHg 86%
    10:00 +17°C° 0.2 mm 3 m/S 762 mmHg 84%
    11:00 +19°C° 0.2 mm 2 m/S 762 mmHg 77%
    12:00 +20°C° 0.2 mm 2 m/S 762 mmHg 71%
    13:00 +21°C° 0.2 mm 2 m/S 762 mmHg 65%
    14:00 +21°C° 0 mm 2 m/S 762 mmHg 59%
    15:00 +23°C° 0 mm 1 m/S 762 mmHg 54%
    16:00 +24°C° 0 mm 1 m/S 762 mmHg 49%
    17:00 +23°C° 0 mm 1 m/S 762 mmHg 52%
    18:00 +22°C° 0 mm 1 m/S 762 mmHg 56%
    19:00 +21°C° 0 mm 1 m/S 762 mmHg 59%
    20:00 +20°C° 0 mm 1 m/S 763 mmHg 63%
    21:00 +19°C° 0 mm 1 m/S 763 mmHg 66%
    22:00 +18°C° 0 mm 1 m/S 763 mmHg 70%
    23:00 +18°C° 0 mm 1 m/S 763 mmHg 73%

    übermorgen, 22 August, Donnerstag

    Zeit Temperatur Niederschläge Wind Luftdruck Luftfeuchtigkeit
    00:00 +16°C° 0 mm 1 m/S 763 mmHg 75%
    01:00 +16°C° 0 mm 1 m/S 763 mmHg 78%
    02:00 +15°C° 0 mm 1 m/S 763 mmHg 79%
    03:00 +15°C° 0 mm 1 m/S 763 mmHg 81%
    04:00 +15°C° 0 mm 1 m/S 763 mmHg 82%
    05:00 +16°C° 0 mm 1 m/S 763 mmHg 78%
    06:00 +18°C° 0 mm 1 m/S 763 mmHg 75%
    07:00 +19°C° 0 mm 1 m/S 763 mmHg 71%
    08:00 +21°C° 0 mm 1 m/S 763 mmHg 64%
    09:00 +21°C° 0 mm 2 m/S 763 mmHg 57%
    10:00 +24°C° 0 mm 2 m/S 763 mmHg 49%
    11:00 +25°C° 0 mm 2 m/S 763 mmHg 47%
    12:00 +25°C° 0 mm 2 m/S 763 mmHg 44%
    13:00 +26°C° 0 mm 2 m/S 762 mmHg 41%
    14:00 +26°C° 0 mm 2 m/S 762 mmHg 41%
    15:00 +26°C° 0 mm 2 m/S 762 mmHg 41%
    16:00 +26°C° 0 mm 1 m/S 762 mmHg 40%
    17:00 +25°C° 0 mm 1 m/S 762 mmHg 45%
    18:00 +23°C° 0 mm 1 m/S 762 mmHg 50%
    19:00 +22°C° 0 mm 1 m/S 762 mmHg 55%
    20:00 +20°C° 0 mm 2 m/S 762 mmHg 58%
    21:00 +19°C° 0 mm 2 m/S 762 mmHg 60%
    22:00 +18°C° 0 mm 2 m/S 763 mmHg 62%
    23:00 +18°C° 0 mm 2 m/S 763 mmHg 65%

    23 August, Freitag

    Zeit Temperatur Niederschläge Wind Luftdruck Luftfeuchtigkeit
    00:00 +17°C° 0 mm 2 m/S 763 mmHg 68%
    01:00 +17°C° 0 mm 2 m/S 762 mmHg 70%
    02:00 +16°C° 0 mm 2 m/S 762 mmHg 74%
    03:00 +16°C° 0 mm 2 m/S 762 mmHg 77%
    04:00 +16°C° 0 mm 1 m/S 762 mmHg 80%
    05:00 +18°C° 0 mm 1 m/S 763 mmHg 77%
    06:00 +19°C° 0 mm 1 m/S 763 mmHg 75%
    07:00 +20°C° 0 mm 1 m/S 763 mmHg 72%
    08:00 +21°C° 0 mm 2 m/S 763 mmHg 65%
    09:00 +23°C° 0 mm 2 m/S 763 mmHg 58%
    10:00 +25°C° 0 mm 3 m/S 763 mmHg 51%
    11:00 +26°C° 0 mm 3 m/S 763 mmHg 48%
    12:00 +26°C° 0 mm 3 m/S 763 mmHg 45%
    13:00 +27°C° 0 mm 3 m/S 762 mmHg 42%
    14:00 +27°C° 0 mm 3 m/S 762 mmHg 42%
    15:00 +27°C° 0 mm 3 m/S 762 mmHg 42%
    16:00 +27°C° 0 mm 3 m/S 761 mmHg 42%
    17:00 +26°C° 0 mm 3 m/S 761 mmHg 48%
    18:00 +24°C° 0 mm 3 m/S 761 mmHg 54%
    19:00 +23°C° 0 mm 2 m/S 761 mmHg 59%
    20:00 +21°C° 0 mm 2 m/S 761 mmHg 62%
    21:00 +20°C° 0 mm 3 m/S 761 mmHg 64%
    22:00 +19°C° 0 mm 3 m/S 761 mmHg 66%
    23:00 +19°C° 0 mm 3 m/S 761 mmHg 68%

    24 August, Samstag

    Zeit Temperatur Niederschläge Wind Luftdruck Luftfeuchtigkeit
    00:00 +18°C° 0 mm 3 m/S 761 mmHg 71%
    01:00 +18°C° 0 mm 3 m/S 761 mmHg 73%
    02:00 +17°C° 0 mm 3 m/S 761 mmHg 76%
    03:00 +17°C° 0 mm 3 m/S 761 mmHg 79%
    04:00 +17°C° 0 mm 3 m/S 760 mmHg 82%
    05:00 +18°C° 0 mm 3 m/S 760 mmHg 78%
    06:00 +18°C° 0 mm 3 m/S 760 mmHg 74%
    07:00 +19°C° 0 mm 4 m/S 760 mmHg 70%
    08:00 +21°C° 0 mm 4 m/S 760 mmHg 64%
    09:00 +23°C° 0 mm 4 m/S 760 mmHg 58%
    10:00 +26°C° 0 mm 5 m/S 760 mmHg 52%
    11:00 +27°C° 0 mm 5 m/S 759 mmHg 51%
    12:00 +28°C° 0 mm 5 m/S 759 mmHg 49%
    13:00 +29°C° 0 mm 4 m/S 758 mmHg 47%
    14:00 +29°C° 0 mm 4 m/S 758 mmHg 48%
    15:00 +29°C° 0 mm 4 m/S 758 mmHg 49%
    16:00 +29°C° 0 mm 4 m/S 757 mmHg 49%
    17:00 +28°C° 0.1 mm 4 m/S 757 mmHg 55%
    18:00 +26°C° 0.1 mm 3 m/S 757 mmHg 61%
    19:00 +25°C° 0.1 mm 3 m/S 757 mmHg 67%
    20:00 +24°C° 0.3 mm 3 m/S 757 mmHg 70%
    21:00 +22°C° 0.3 mm 3 m/S 757 mmHg 73%
    22:00 +22°C° 0.3 mm 3 m/S 757 mmHg 76%
    23:00 +21°C° 0.8 mm 3 m/S 756 mmHg 78%

    25 August, Sonntag

    Zeit Temperatur Niederschläge Wind Luftdruck Luftfeuchtigkeit
    00:00 +21°C° 0.8 mm 3 m/S 756 mmHg 81%
    01:00 +21°C° 0.8 mm 3 m/S 756 mmHg 83%
    02:00 +20°C° 0.5 mm 3 m/S 756 mmHg 85%
    03:00 +20°C° 0.5 mm 3 m/S 755 mmHg 87%
    04:00 +20°C° 0.5 mm 3 m/S 755 mmHg 89%
    05:00 +20°C° 0.2 mm 3 m/S 755 mmHg 86%
    06:00 +21°C° 0.2 mm 3 m/S 755 mmHg 84%
    07:00 +22°C° 0.2 mm 3 m/S 755 mmHg 81%
    08:00 +25°C° 0 mm 3 m/S 755 mmHg 74%
    09:00 +27°C° 0 mm 3 m/S 755 mmHg 67%
    10:00 +29°C° 0 mm 3 m/S 755 mmHg 60%
    11:00 +30°C° 0 mm 3 m/S 755 mmHg 54%
    12:00 +33°C° 0 mm 3 m/S 754 mmHg 48%
    13:00 +34°C° 0 mm 2 m/S 754 mmHg 42%
    14:00 +34°C° 0 mm 2 m/S 754 mmHg 42%
    15:00 +34°C° 0 mm 2 m/S 754 mmHg 43%
    16:00 +34°C° 0 mm 2 m/S 754 mmHg 44%
    17:00 +31°C° 0 mm 2 m/S 754 mmHg 49%
    18:00 +29°C° 0 mm 2 m/S 753 mmHg 55%
    19:00 +28°C° 0 mm 2 m/S 753 mmHg 61%
    20:00 +27°C° 0.4 mm 2 m/S 754 mmHg 67%
    21:00 +26°C° 0.4 mm 2 m/S 754 mmHg 72%
    22:00 +25°C° 0.4 mm 2 m/S 754 mmHg 78%
    23:00 +24°C° 0.5 mm 2 m/S 754 mmHg 82%
    Mehr zeigen